Regional Weather Roundup
Issued by NWS

Home | Current Version | Previous Version | Text Only | Print | Product List | Glossary Off
Versions: 1 2 3 4 5 6 7 8 9 10 11 12 13 14 15 16 17 18 19 20 21 22 23 24 25 26 27 28 29 30 31 32 33 34 35 36 37 38 39 40 41 42 43 44 45 46 47 48 49 50

000
ASUS43 KMKX 220111
RWRWI

WISCONSIN REGIONAL WEATHER ROUNDUP
NATIONAL WEATHER SERVICE MILWAUKEE/SULLIVAN WI
700 PM CST TUE FEB 21 2017

NOTE: "FAIR" INDICATES FEW OR NO CLOUDS BELOW 12,000 FEET WITH NO
SIGNIFICANT WEATHER AND/OR OBSTRUCTIONS TO VISIBILITY.

WIZ001-002-006>008-014>016-023>028-220200-
NORTHWEST WISCONSIN

CITY           SKY/WX    TMP DP  RH WIND       PRES   REMARKS
SUPERIOR ARPT  CLOUDY    36  34  90 CALM      29.69F
ASHLAND        CLOUDY    46  32  58 CALM      29.71F
HAYWARD        CLOUDY    47  35  63 S6        29.72S
SIREN          CLOUDY    46  38  76 CALM      29.70F
CUMBERLAND     CLOUDY    45  36  70 S7        29.72F
RICE LAKE      CLOUDY    48  37  65 SE7       29.74F
CHETEK         CLOUDY    47  38  72 CALM      29.74S
LADYSMITH      CLOUDY    50  35  55 SE5       29.76S
EAU CLAIRE     PTCLDY    52  38  58 S9        29.75R
MENOMONIE      CLOUDY    53  39  59 S9        29.75F
NEW RICHMOND   PTCLDY    52  42  69 S9        29.72S
OSCEOLA        PTCLDY    52  43  71 S6        29.74
$$

WIZ003>005-009-010-017-018-220200-
NORTH CENTRAL WISCONSIN

CITY           SKY/WX    TMP DP  RH WIND       PRES   REMARKS
MANITOWISH WTR CLOUDY    46  32  58 S8        29.74S
ARBOR VITAE    PTCLDY    47  35  63 S6          N/A
WOODRUFF       PTCLDY    47  35  63 S6          N/A
RHINELANDER    PTCLDY    48  33  56 S5        29.77S
EAGLE RIVER    CLOUDY    47  29  50 S3        29.75S
LAND O LAKES   CLOUDY    49  29  46 S8        29.76S
PHILLIPS       MOCLDY    46  37  70 S3        29.75S
TOMAHAWK       CLOUDY    44  35  69 CALM      29.77S
MEDFORD        PTCLDY    42  35  75 S7        29.76S
MERRILL        NOT AVBL
$$

WIZ029-030-035-036-043>047-220200-
CENTRAL WISCONSIN

CITY           SKY/WX    TMP DP  RH WIND       PRES   REMARKS
WAUSAU         CLOUDY    49  34  56 S9        29.77S
MOSINEE        CLOUDY    48  36  61 S9        29.79S
MARSHFIELD     PTCLDY    52  32  46 S10       29.77F
STEVENS POINT  CLOUDY    50  32  49 S8        29.81S
WAUPACA        CLOUDY    53  37  53 S6        29.81F
WAUTOMA        PTCLDY    52  35  52 S6        29.82F
WISC RAPIDS    CLOUDY    54  33  45 S7        29.80F
CAMP DOUGLAS   MOCLDY    54  32  42 VRB5      29.80F
$$

WIZ011>013-019>022-031-037>040-048>050-220200-
NORTHEAST WISCONSIN

CITY           SKY/WX    TMP DP  RH WIND       PRES   REMARKS
ANTIGO         PTCLDY    41  34  76 S9        29.79S
SHAWANO        CLOUDY    53  38  56 CALM      29.81F
OCONTO         MOCLDY    50  39  67 S3        29.82S
STURGEON BAY   MOCLDY    48  38  68 S7        29.83F
GREEN BAY      PTCLDY    50  43  77 S7        29.83F
MANITOWOC      PTCLDY    47  41  80 S8        29.86F
APPLETON       MOCLDY    46  37  71 S6        29.82F
CLINTONVILLE   CLOUDY    50  37  62 S7        29.81F
OSHKOSH        PTCLDY    47  40  76 S10       29.84F
$$

WIZ032>034-041-042-053>061-220200-
SOUTHWEST WISCONSIN

CITY           SKY/WX    TMP DP  RH WIND       PRES   REMARKS
LA CROSSE      CLOUDY    55  38  52 S14       29.78F
SPARTA         CLOUDY    55  35  47 S3        29.81F
VIROQUA        CLOUDY    52  37  55 S9        29.81F
BOSCOBEL       CLOUDY    55  39  54 SW3       29.84S
PRAIRIE DU CHI CLOUDY    53  39  59 E5        29.83F
PLATTEVILLE    MOCLDY    52  39  62 S8        29.86F
$$

WIZ056-057-062-063-064-067-068-220200-
SOUTH CENTRAL WISCONSIN

CITY           SKY/WX    TMP DP  RH WIND       PRES   REMARKS
REEDSBURG      PTCLDY    54  36  50 CALM      29.84S
BARABOO/DELLS  PTCLDY    53  33  47 S7        29.84S
LONE ROCK      CLOUDY    49  39  68 CALM      29.85F
MINERAL POINT  CLOUDY    54  37  54 S6        29.86S
MADISON        CLOUDY    49  35  58 CALM      29.85F
MIDDLETON      CLOUDY    53  34  48 S3        29.86S
WATERTOWN      PTCLDY    47  39  72 CALM      29.86F
MONROE         PTCLDY    52  39  62 S6        29.86F
JANESVILLE     MOCLDY    54  36  50 SW3       29.86F
$$

WIZ051-052-058>065-066-070>072-220200-
SOUTHEAST WISCONSIN

CITY           SKY/WX    TMP DP  RH WIND       PRES   REMARKS
MILWAUKEE      MOCLDY    46  44  93 SE3       29.88F FOG
WAUKESHA       CLEAR     55  30  38 SW3       29.89F
MILWAUKEE/TIMM CLEAR     48  43  81 CALM      29.88F
RACINE         FOG       45  43  93 S8        29.91S VSB 1/4
KENOSHA        MOCLDY    46  43  89 SE3       29.89R
FOND DU LAC    PTCLDY    50  40  68 S6        29.85F
SHEBOYGAN      PTCLDY    47  42  83 S6        29.87S
WEST BEND      PTCLDY    46  32  57 SE3       29.87S
JUNEAU         PTCLDY    50  40  68 SE5       29.87F
$$

LSZ147-162-220200-
LAKE SUPERIOR

STATION/POSITION TIME  TEMP    WIND        PRES    WAVE
                       AIR SEA DIR/SP/G            HT/PER
                 (UTC) (F)     (DEG/KT/KT) (MB)    (FT/S)
DEVILS ISLAND    0000   42     150/ 10/ 11 1006.4F
PORT WING        0030   38      CALM  /  4 1006.1S
SAXON HARBOR     0040   43     190/  1/  3 1006.1S
$$

LMZ867-665-643>646-220200-
LAKE MICHIGAN

STATION/POSITION TIME  TEMP    WIND        PRES    WAVE
                       AIR SEA DIR/SP/G            HT/PER
                 (UTC) (F)     (DEG/KT/KT) (MB)    (FT/S)
CHAMBERS ISLAND  0040   51     180/  6/ 11 1009.1F
NORTHPORT PIER   0040   40      CALM  /  3 1009.8F
SISTER BAY       0020   44     150/ 10/ 11   N/A
ALGOMA LAKESHORE 0025          200/ 11/ 13   N/A
KEWAUNEE LAKESHO 0048   43     180/ 11/ 12 1010.2F
SHEBOYGAN LAKESH 0000   46     190/  7/  8 1011.8S
PORT WASHINGTON  0040   42     190/  2/  4 1012.9S
MILWAUKEE LAKESH 0050   42     140/ 10/ 11   N/A
KENOSHA   LAKESH 0000   39     130/  3/  4 1012.2
$$

TC  - TEMPERATURE IN CELSIUS
VSB - VISIBILITY IN STATUTE MILES
WCI - WIND CHILL INDEX
HX  - HEAT INDEX





USA.gov is the U.S. government's official web portal to all federal, state and local government web resources and services.